Regional Weather Roundup
Issued by NWS Upton, NY

Current Version | Previous Version | Text Only | Print | Product List | Glossary On
Versions: 1 2 3 4 5 6 7 8 9 10 11 12 13 14 15 16 17 18 19 20 21 22 23 24 25 26 27
000
ASUS41 KOKX 192009
RWROKX

REGIONAL WEATHER ROUNDUP
NATIONAL WEATHER SERVICE NEW YORK NY
400 PM EDT TUE SEP 19 2017

NOTE: "FAIR" INDICATES FEW OR NO CLOUDS BELOW 12,000 FEET WITH NO
SIGNIFICANT WEATHER AND/OR OBSTRUCTIONS TO VISIBILITY.

NYZ071-072-176-178-NJZ106-104-192100-
NEW YORK CITY METRO AREA

CITY           SKY/WX    TMP DP  RH WIND       PRES   REMARKS
Central Park   RAIN      71  68  90 VRB7      29.94F FOG
Bronx Bot Gard   N/A     68  64  88 N2        29.93F
LaGuardia APRT LGT RAIN  71  68  90 NE15      29.91F
Kennedy INTL   LGT RAIN  70  67  90 N21G26    29.88F
Breezy Point     N/A     68 N/A N/A N20G29      N/A
Newark/Liberty LGT RAIN  76  65  68 NE15G26   29.90F
Teterboro      LGT RAIN  76  64  66 NE10G22   29.90F
$$

NYZ177-179-078>081-192100-
LONG ISLAND NEW YORK

CITY           SKY/WX    TMP DP  RH WIND       PRES   REMARKS
Jones Beach      N/A     70 N/A N/A N28G37      N/A
Matinecock PT    N/A     70 N/A N/A NE23G30     N/A
Farmingdale    CLOUDY    70  67  90 N21G31    29.88F
MacArthur/ISP  LGT RAIN  71  68  90 N23G31    29.87F
Shirley        LGT RAIN  72  68  87 N14G23    29.88F
Mt Sinai Harb    N/A    N/A N/A N/A N17         N/A
Westhampton    RAIN      69  65  86 N18G25    29.88F FOG
East Hampton   CLOUDY    68  65  92 NE12G25   29.89S
Montauk          N/A     69  67  93 NE14G22   29.89F
$$

NYZ052-065-067-192100-
HUDSON VALLEY

CITY           SKY/WX    TMP DP  RH WIND       PRES   REMARKS
White Plains   LGT RAIN  72  65  78 N9        29.93F
Larchmont Harb   N/A     70 N/A N/A N14G21      N/A
Croton On Huds   N/A     77 N/A N/A NE7G14      N/A
Newburgh       PTSUNNY   79  66  65 NE12G23   29.97F
Montgomery     MOSUNNY   79  65  62 NE14G23   29.96F
Poughkeepsie   PTSUNNY   78  62  57 NE14      29.94F
Albany         MOSUNNY   81  61  50 NE10      30.00F
$$

NJZ001-105-106-008-010-013-015-019>022-104-192100-
NEW JERSEY

CITY           SKY/WX    TMP DP  RH WIND       PRES   REMARKS
Newark/Liberty LGT RAIN  76  65  68 NE15G26   29.90F
Teterboro      LGT RAIN  76  64  66 NE10G22   29.90F
Caldwell       PTSUNNY   77  65  66 E12G18    29.92F
Somerville     NOT AVBL
Linden         CLOUDY    78  61  56 NE10G18   29.90F
Perth Amboy      N/A     73 N/A N/A NE18G25     N/A
Sussex         MOSUNNY   77  64  64 NE15G22   29.95F
Andover          N/A     77  64  64 NE8       29.95F
Trenton        CLOUDY    77  64  64 NE18      29.88F
Millville      CLOUDY    73  69  87 N18G25    29.85F
Atlantic City  HVY RAIN  69  68  96 N18G28    29.83S VSB 1
Wrightstown    LGT RAIN  69  66  91 N15G24    29.85F
Toms River     LGT RAIN  68  66  93 N14G24    29.85F FOG
Belmar         LGT RAIN  68  66  93 N18G29    29.87F
$$

PAZ047>061-062-071-192100-
EASTERN PENNSYLVANIA

CITY           SKY/WX    TMP DP  RH WIND       PRES   REMARKS
Philadelphia   LGT RAIN  75  66  73 E7        29.88F
Allentown      MOSUNNY   82  63  52 NE14      29.93F
Scranton       SUNNY     83  58  42 NE10G17   29.97F
$$

CTZ002-004>006-009-010-012-RIZ004-006-007-MAZ004-011-015-192100-
SOUTHERN NEW ENGLAND
 IN CT

CITY           SKY/WX    TMP DP  RH WIND       PRES   REMARKS
Bradley INTL   LGT RAIN  72  65  78 NE15      29.98F
Hartford       CLOUDY    73  65  75 N16G22    29.96F
Danbury        LGT RAIN  72  65  78 NE10      29.97F
Wtrbury/Oxford RAIN      67  65  93 NE14      29.97F
Norwalk Harbor   N/A     70 N/A N/A N16         N/A
Bridgeport     CLOUDY    70  67  90 N17G25    29.91F
Meriden        LGT RAIN  71  64  78 N14G22    29.95F
New Haven      CLOUDY    71  67  87 N16       29.92F
Chester          N/A     72  66  83 NE12G18   29.94F
Groton         CLOUDY    73  65  75 N20G26    29.90F
Wilimantic     CLOUDY    72  66  81 NE18G26   29.96F

 IN RI

CITY           SKY/WX    TMP DP  RH WIND       PRES   REMARKS
Providence     CLOUDY    68  65  90 NE21      29.98F
Block Island   LGT RAIN  66  65  96 NE21G33   29.90F FOG
Westerly       CLOUDY    73  66  78 N14G20    29.92S
 IN MA

CITY           SKY/WX    TMP DP  RH WIND       PRES   REMARKS
Boston         CLOUDY    64  63  96 NE16      30.03F FOG
Worcester      CLOUDY    64  62  93 NE12G24   30.04F
Westfield      CLOUDY    76  64  66 NE9       29.99F
Provincetown   CLOUDY    64  63  96 NE16      29.99F FOG
Nantucket      CLOUDY    68  68 100 NE18G29   29.90F
$$

ANZ330-335-338-340-345-350-353-355-192100-
COASTAL MARINE OBSERVATIONS


STATION/POSITION TIME  SKY/WX   TEMP    WIND        PRES    VSBY  WAVE
                                AIR SEA DIR/SP/G                  HT/PER
                 (UTC)          (F)     (DEG/KT/KT) (MB)    (MI)  (FT/S)
NY HARB ENTRANCE 1850            69 70   10/ 27/ 31 1010.2          9/12
20 S FIRE ISLAND 1850            69 68   20/ 27/ 37 1009.1         13/13
GREAT SOUTH BAY  1930            71 72   20/ 17/ 25   N/A
23 SSW MONTAUK P 1850            68 67              1010.5         12/13
15 E BARNEGAT LI 1830               70                N/A          12/13
HUDSON CANYON    1850            69 70   40/ 29/ 37 1005.0         16/13
KINGS POINT      1942            69 71   70/ 13/ 18 1013.7
EXECUTION ROCKS  1945            71      50/ 17/ 25   N/A
WESTERN LI SOUND NOT AVBL
CENTRAL LI SOUND NOT AVBL
EASTERN LI SOUND NOT AVBL
ROBBINS REEF     1942            73      30/ 18/ 22 1013.0
$$


>>>>>>>>>>>>>>>>>>>>>>>>>>>> KEY <<<<<<<<<<<<<<<<<<<<<<<<<<<
>                                                          <
>     SKY/WX - Sky Condition/Present Weather               <
>     TMP    - Temperature in Fahrenheit                   <
>     DP     - Dew Point in Fahrenheit                     <
>     RH     - Relative Humidity in Percent                <
>     WIND   - Direction (from) and Speed in MPH           <
>     PRES   - Mean Sea Level Pressure (inches of Hg)      <
>     WCI    - Wind Chill Index                            <
>     VSB    - VISIBILITY IN MILES                         <
>     HX     - HEAT INDEX                                  <
>     TC     - TEMPERATURE IN CELSIUS                      <
>     VRB    - VARIABLE WIND DIRECTION                     <
>                                                          <
>>>>>>>>>>>>>>>>>>>>>>>>>>>> KEY <<<<<<<<<<<<<<<<<<<<<<<<<<<




USA.gov is the U.S. government's official web portal to all federal, state and local government web resources and services.